Weather History for Fort Madison, IA

Change the Weather History Date:

Thursday, October 4, 2012

  Actual Average Record
Temperature  
Mean Temperature 58 °F -  
Max Temperature 69 °F 71 °F 87 °F (1976)
Min Temperature 46 °F 47 °F 33 °F (2004)
Degree Days  
Heating Degree Days 8    
Growing Degree Days 8 (Base 50)    
Moisture  
Dew Point 54 °F    
Average Humidity 88    
Maximum Humidity 100    
Minimum Humidity 52    
Precipitation  
Precipitation 0.37 in - - ()
Sea Level Pressure  
Sea Level Pressure 30.11 in    
Wind  
Wind Speed 9 mph (WSW)    
Max Wind Speed 18 mph    
Max Gust Speed 26 mph    
Visibility 10 miles    
Events Rain    
Averages and records for this station are not official NWS values.
T = Trace of Precipitation, MM = Missing Value Source: NWS Daily Summary

Daily Weather History Graph

Daily Weather History Graph

Search for Another Location

Airport:

Trip Planner

Search our weather history database for the weather conditions in past years. The results will help you decide how hot, cold, wet, or windy it might be!

Date:

Astronomy

Oct. 04, 2012 Rise Set
Actual Time 7:05 AM CDT 6:41 PM CDT
Civil Twilight 6:38 AM CDT 7:08 PM CDT
Nautical Twilight 6:06 AM CDT 7:40 PM CDT
Astronomical Twilight 5:34 AM CDT 8:12 PM CDT
Moon 9:16 PM CDT (10/4) 11:24 AM CDT (10/4)
Length of Visible Light 12h 30m
Length of Day
11h 36m
Waning Gibbous, 82% of the Moon is Illuminated
Oct 4
Waning Gibbous
Oct 8
Last Quarter
Oct 15
New
Oct 21
First Quarter
Oct 29
Full

Hourly Weather History & Observations

Time (CDT) Temp. Windchill Dew Point Humidity Pressure Visibility Wind Dir Wind Speed Gust Speed Precip Events Conditions
12:15 AM 64.4 °F - 59.0 °F 83% 30.02 in 10.0 mi SSW 6.9 mph - N/A   Clear
12:35 AM 64.4 °F - 59.0 °F 83% 30.02 in 10.0 mi SSW 8.1 mph - N/A   Clear
12:55 AM 64.4 °F - 59.0 °F 83% 30.02 in 10.0 mi SSW 6.9 mph - N/A   Clear
1:15 AM 62.6 °F - 59.0 °F 88% 30.03 in 10.0 mi SSW 6.9 mph - N/A   Clear
1:35 AM 62.6 °F - 59.0 °F 88% 30.03 in 10.0 mi SSW 9.2 mph - N/A   Clear
1:55 AM 62.6 °F - 60.8 °F 94% 30.03 in 10.0 mi SSW 8.1 mph - N/A   Clear
2:15 AM 62.6 °F - 60.8 °F 94% 30.03 in 10.0 mi South 8.1 mph - N/A   Clear
2:35 AM 62.6 °F - 60.8 °F 94% 30.03 in 10.0 mi SSW 8.1 mph - N/A   Clear
2:55 AM 62.6 °F - 59.0 °F 88% 30.03 in 10.0 mi South 8.1 mph - N/A   Clear
3:15 AM 62.6 °F - 60.8 °F 94% 30.02 in 10.0 mi South 8.1 mph - N/A   Clear
3:35 AM 62.6 °F - 59.0 °F 88% 30.02 in 10.0 mi South 9.2 mph - N/A   Clear
3:55 AM 62.6 °F - 60.8 °F 94% 30.02 in 10.0 mi South 9.2 mph - N/A   Clear
4:15 AM 62.6 °F - 60.8 °F 94% 30.02 in 10.0 mi SSW 8.1 mph - N/A   Clear
4:35 AM 62.6 °F - 60.8 °F 94% 30.02 in 10.0 mi South 10.4 mph - N/A   Clear
4:55 AM 62.6 °F - 60.8 °F 94% 30.02 in 10.0 mi South 10.4 mph - N/A   Clear
5:15 AM 62.6 °F - 60.8 °F 94% 30.02 in 10.0 mi South 9.2 mph - N/A   Scattered Clouds
5:35 AM 62.6 °F - 59.0 °F 88% 30.02 in 10.0 mi South 11.5 mph - N/A   Scattered Clouds
5:55 AM 62.6 °F - 59.0 °F 88% 30.02 in 10.0 mi SSW 10.4 mph - N/A   Clear
6:15 AM 62.6 °F - 59.0 °F 88% 30.02 in 10.0 mi SSW 10.4 mph - N/A   Scattered Clouds
6:35 AM 62.6 °F - 59.0 °F 88% 30.02 in 10.0 mi South 11.5 mph - N/A   Mostly Cloudy
6:55 AM 62.6 °F - 59.0 °F 88% 30.03 in 10.0 mi SSW 11.5 mph - N/A   Mostly Cloudy
7:15 AM 64.4 °F - 59.0 °F 83% 30.03 in 10.0 mi SSW 11.5 mph 17.3 mph N/A   Mostly Cloudy
7:35 AM 64.4 °F - 59.0 °F 83% 30.04 in 10.0 mi SW 10.4 mph 18.4 mph N/A   Scattered Clouds
7:55 AM 64.4 °F - 59.0 °F 83% 30.04 in 10.0 mi SSW 10.4 mph - N/A   Clear
8:15 AM 64.4 °F - 59.0 °F 83% 30.05 in 10.0 mi SW 9.2 mph - N/A   Clear
8:35 AM 64.4 °F - 59.0 °F 83% 30.05 in 10.0 mi SW 9.2 mph - N/A   Clear
8:55 AM 64.4 °F - 59.0 °F 83% 30.05 in 10.0 mi SW 8.1 mph - N/A   Clear
9:15 AM 66.2 °F - 59.0 °F 78% 30.06 in 10.0 mi WSW 8.1 mph - N/A   Clear
9:35 AM 68.0 °F - 59.0 °F 73% 30.07 in 10.0 mi West 11.5 mph 16.1 mph N/A   Clear
9:55 AM 68.0 °F - 57.2 °F 68% 30.07 in 10.0 mi West 10.4 mph - N/A   Clear
10:15 AM 66.2 °F - 55.4 °F 68% 30.07 in 10.0 mi NNW 8.1 mph - N/A   Clear
10:35 AM 69.8 °F - 53.6 °F 56% 30.08 in 10.0 mi NW 10.4 mph - N/A   Clear
10:55 AM 66.2 °F - 51.8 °F 60% 30.10 in 10.0 mi WNW 11.5 mph - N/A   Scattered Clouds
11:15 AM 66.2 °F - 48.2 °F 52% 30.12 in 7.0 mi WNW 15.0 mph 21.9 mph N/A   Scattered Clouds
11:35 AM 66.2 °F - 48.2 °F 52% 30.11 in 10.0 mi WNW 12.7 mph 20.7 mph N/A   Scattered Clouds
11:55 AM 64.4 °F - 48.2 °F 56% 30.09 in 10.0 mi NW 8.1 mph - N/A   Scattered Clouds
12:15 PM 62.6 °F - 50.0 °F 63% 30.13 in 10.0 mi West 13.8 mph - N/A Rain Light Rain
12:35 PM 60.8 °F - 48.2 °F 63% 30.15 in 10.0 mi WNW 17.3 mph - N/A   Clear
12:55 PM 60.8 °F - 48.2 °F 63% 30.15 in 10.0 mi NW 16.1 mph 21.9 mph N/A   Clear
1:35 PM 59.0 °F - 48.2 °F 67% 30.14 in 10.0 mi WNW 13.8 mph 19.6 mph N/A   Mostly Cloudy
1:55 PM 57.2 °F - 46.4 °F 67% 30.17 in 10.0 mi WNW 18.4 mph 26.5 mph N/A   Mostly Cloudy
2:15 PM 55.4 °F - 48.2 °F 77% 30.17 in 10.0 mi WNW 11.5 mph 20.7 mph N/A Rain Light Rain
2:35 PM 53.6 °F - 51.8 °F 94% 30.16 in 10.0 mi NW 13.8 mph - 0.05 in Rain Rain
2:55 PM 51.8 °F - 51.8 °F 100% 30.11 in 7.0 mi North 8.1 mph - 0.09 in Rain Rain
3:15 PM 51.8 °F - 51.8 °F 100% 30.19 in 5.0 mi West 9.2 mph 20.7 mph 0.07 in Rain Heavy Rain
3:35 PM 51.8 °F - 51.8 °F 100% 30.18 in 10.0 mi WNW 11.5 mph - 0.08 in Rain Light Rain
3:55 PM 51.8 °F - 50.0 °F 94% 30.19 in 7.0 mi WNW 11.5 mph 18.4 mph 0.11 in Rain Rain
4:15 PM 50.0 °F - 50.0 °F 100% 30.19 in 5.0 mi WNW 11.5 mph - 0.06 in Rain Rain
4:35 PM 50.0 °F - 50.0 °F 100% 30.18 in 10.0 mi West 6.9 mph - 0.10 in Rain Light Rain
4:55 PM 50.0 °F - 50.0 °F 100% 30.18 in 7.0 mi WNW 6.9 mph - 0.10 in Rain Light Rain
5:15 PM 50.0 °F - 50.0 °F 100% 30.19 in 7.0 mi West 4.6 mph - 0.02 in Rain Rain
5:55 PM 50.0 °F - 50.0 °F 100% 30.20 in 10.0 mi West 6.9 mph - 0.07 in Rain Light Rain
6:15 PM 50.0 °F - 50.0 °F 100% 30.20 in 10.0 mi West 6.9 mph - N/A Rain Light Rain
6:35 PM 50.0 °F - 50.0 °F 100% 30.19 in 10.0 mi West 5.8 mph - N/A   Overcast
6:55 PM 50.0 °F - 50.0 °F 100% 30.19 in 10.0 mi West 4.6 mph - N/A   Overcast
7:15 PM 50.0 °F - 50.0 °F 100% 30.19 in 10.0 mi WSW 3.5 mph - N/A   Overcast
7:35 PM 50.0 °F - 50.0 °F 100% 30.19 in 10.0 mi WSW 3.5 mph - N/A   Overcast
7:55 PM 48.2 °F - 48.2 °F 100% 30.20 in 10.0 mi WSW 3.5 mph - N/A   Mostly Cloudy
8:15 PM 48.2 °F - 48.2 °F 100% 30.20 in 10.0 mi SW 4.6 mph - N/A   Mostly Cloudy
8:35 PM 48.2 °F - 48.2 °F 100% 30.20 in 10.0 mi WSW 4.6 mph - N/A   Scattered Clouds
8:55 PM 48.2 °F - 48.2 °F 100% 30.21 in 10.0 mi Calm Calm - N/A   Clear
9:15 PM 48.2 °F - 48.2 °F 100% 30.21 in 10.0 mi WSW 3.5 mph - N/A   Clear
9:35 PM 46.4 °F 45.2 °F 46.4 °F 100% 30.21 in 10.0 mi WSW 3.5 mph - N/A   Clear
9:55 PM 48.2 °F - 48.2 °F 100% 30.22 in 10.0 mi West 5.8 mph - N/A   Scattered Clouds
10:15 PM 48.2 °F - 48.2 °F 100% 30.21 in 10.0 mi West 5.8 mph - N/A   Mostly Cloudy
10:35 PM 46.4 °F 43.5 °F 46.4 °F 100% 30.20 in 10.0 mi West 5.8 mph - N/A   Mostly Cloudy
10:55 PM 46.4 °F 43.5 °F 46.4 °F 100% 30.19 in 10.0 mi West 5.8 mph - N/A   Scattered Clouds
11:15 PM 46.4 °F 42.9 °F 46.4 °F 100% 30.20 in 10.0 mi West 6.9 mph - N/A   Clear
11:35 PM 46.4 °F 44.3 °F 46.4 °F 100% 30.20 in 10.0 mi West 4.6 mph - N/A   Clear
11:55 PM 46.4 °F 41.9 °F 46.4 °F 100% 30.23 in 10.0 mi West 9.2 mph - N/A   Clear